Weather History for West Palm Beach, FL

Change the Weather History Date:

Sunday, April 27, 2014

  Actual Average Record
Temperature  
Mean Temperature 80 °F 75 °F  
Max Temperature 89 °F 83 °F 96 °F (1945)
Min Temperature 71 °F 68 °F 53 °F (1903)
Degree Days  
Heating Degree Days 0 0  
Month to date heating degree days 0 0  
Since 1 July heating degree days 122 229  
Cooling Degree Days 15 10  
Month to date cooling degree days 285 233  
Year to date cooling degree days 833 661  
Growing Degree Days 30 (Base 50)    
Moisture  
Dew Point 66 °F    
Average Humidity 65    
Maximum Humidity 93    
Minimum Humidity 36    
Precipitation  
Precipitation 0.00 in 0.11 in 1.52 in (1948)
Month to date precipitation 1.04 3.38  
Year to date precipitation 14.92 13.92  
Snow  
Snow 0.00 in - - ()
Month to date snowfall 0.0  
Since 1 July snowfall 0.0  
Snow Depth 0.00 in    
Sea Level Pressure  
Sea Level Pressure 29.98 in    
Wind  
Wind Speed 9 mph (SE)    
Max Wind Speed 17 mph    
Max Gust Speed 23 mph    
Visibility 10 miles    
Events      
T = Trace of Precipitation, MM = Missing Value Source: NWS Daily Summary

Daily Weather History Graph

Daily Weather History Graph

Search for Another Location

Airport:

Trip Planner

Search our weather history database for the weather conditions in past years. The results will help you decide how hot, cold, wet, or windy it might be!

Date:

Astronomy

Apr. 27, 2014 Rise Set
Actual Time 6:45 AM EDT 7:50 PM EDT
Civil Twilight 6:21 AM EDT 8:15 PM EDT
Nautical Twilight 5:52 AM EDT 8:43 PM EDT
Astronomical Twilight 5:23 AM EDT 9:13 PM EDT
Moon 5:34 AM EDT (4/27) 6:30 PM EDT (4/27)
Length of Visible Light 13h 53m
Length of Day
13h 05m
Waning Crescent, 3% of the Moon is Illuminated
Apr 27
Waning Crescent
Apr 29
New
May 6
First Quarter
May 14
Full
May 21
Last Quarter

Hourly Weather History & Observations

Time (EDT) Temp. Heat Index Dew Point Humidity Pressure Visibility Wind Dir Wind Speed Gust Speed Precip Events Conditions
12:53 AM 77.0 °F - 70.0 °F 79% 30.00 in 10.0 mi ESE 6.9 mph - N/A   Clear
1:53 AM 77.0 °F - 70.0 °F 79% 29.98 in 10.0 mi SE 6.9 mph - N/A   Clear
2:53 AM 77.0 °F - 70.0 °F 79% 29.97 in 10.0 mi SSE 4.6 mph - N/A   Scattered Clouds
3:53 AM 77.0 °F - 69.1 °F 76% 29.96 in 10.0 mi SSE 3.5 mph - N/A   Partly Cloudy
4:53 AM 73.9 °F - 69.1 °F 85% 29.97 in 10.0 mi Calm Calm - N/A   Scattered Clouds
5:53 AM 72.0 °F - 69.1 °F 91% 29.97 in 10.0 mi Calm Calm - N/A   Partly Cloudy
6:53 AM 72.0 °F - 68.0 °F 87% 29.99 in 10.0 mi Calm Calm - N/A   Scattered Clouds
7:53 AM 77.0 °F - 70.0 °F 79% 30.01 in 10.0 mi SSE 4.6 mph - N/A   Partly Cloudy
8:53 AM 81.0 °F 83.3 °F 66.9 °F 62% 30.01 in 10.0 mi SSE 11.5 mph - N/A   Partly Cloudy
9:53 AM 82.9 °F 85.4 °F 66.9 °F 58% 30.01 in 10.0 mi SSE 10.4 mph - N/A   Partly Cloudy
10:53 AM 86.0 °F 87.6 °F 64.9 °F 49% 30.02 in 10.0 mi SE 8.1 mph - N/A   Scattered Clouds
11:53 AM 88.0 °F 86.7 °F 57.0 °F 35% 30.02 in 10.0 mi ESE 6.9 mph - N/A   Scattered Clouds
12:53 PM 88.0 °F 89.3 °F 64.0 °F 45% 30.00 in 10.0 mi ESE 15.0 mph - N/A   Scattered Clouds
1:53 PM 88.0 °F 87.9 °F 61.0 °F 40% 30.00 in 10.0 mi ESE 13.8 mph 19.6 mph N/A   Scattered Clouds
2:53 PM 88.0 °F 87.9 °F 61.0 °F 40% 29.98 in 10.0 mi ESE 16.1 mph 21.9 mph N/A   Partly Cloudy
3:53 PM 86.0 °F 86.1 °F 61.0 °F 43% 29.96 in 10.0 mi ESE 13.8 mph - N/A   Partly Cloudy
4:53 PM 86.0 °F 86.3 °F 62.1 °F 44% 29.95 in 10.0 mi East 12.7 mph - N/A   Partly Cloudy
5:53 PM 84.0 °F 86.3 °F 66.0 °F 55% 29.95 in 10.0 mi SE 13.8 mph - N/A   Mostly Cloudy
6:53 PM 82.0 °F 84.1 °F 66.0 °F 58% 29.96 in 10.0 mi ESE 12.7 mph - N/A   Mostly Cloudy
7:53 PM 81.0 °F 82.7 °F 64.9 °F 58% 29.96 in 10.0 mi ESE 9.2 mph - N/A   Mostly Cloudy
8:53 PM 80.1 °F 82.1 °F 66.0 °F 62% 29.97 in 10.0 mi ESE 11.5 mph - N/A   Scattered Clouds
9:53 PM 80.1 °F 82.1 °F 66.0 °F 62% 29.98 in 10.0 mi ESE 12.7 mph - N/A   Scattered Clouds
10:53 PM 79.0 °F - 66.0 °F 64% 29.99 in 10.0 mi ESE 9.2 mph - N/A   Mostly Cloudy
11:53 PM 79.0 °F - 66.9 °F 66% 29.99 in 10.0 mi SE 12.7 mph - N/A   Scattered Clouds